This is the latest recevied weather packets stored in our database for station/object KD0SBN. If no packets are shown the sender has not sent any weather packets the latest 10 day(s).
| Time | Temp. | Humidity | Pressure | Rain* | Wind** | Luminosity | Snow |
|---|---|---|---|---|---|---|---|
| 1777399533 | 13.33° C | 48% | 1015.7 hPa | 0 mm | - | - | - |
| 1777399230 | 13.33° C | 48% | 1015.9 hPa | 0 mm | - | - | - |
| 1777398927 | 12.78° C | 49% | 1015.8 hPa | 0 mm | - | - | - |
| 1777398624 | 13.33° C | 50% | 1016.1 hPa | 0 mm | - | - | - |
| 1777398320 | 13.33° C | 49% | 1015.9 hPa | 0 mm | - | - | - |
| 1777398018 | 12.78° C | 49% | 1015.9 hPa | 0 mm | - | - | - |
| 1777397714 | 12.78° C | 50% | 1016.1 hPa | 0 mm | - | - | - |
| 1777397410 | 13.33° C | 50% | 1015.9 hPa | 0 mm | - | - | - |
| 1777397107 | 12.78° C | 52% | 1015.9 hPa | 0 mm | - | - | - |
| 1777396803 | 12.22° C | 53% | 1015.8 hPa | 0 mm | - | - | - |
| 1777396500 | 12.22° C | 52% | 1016.1 hPa | 0 mm | - | - | - |
| 1777396196 | 12.22° C | 53% | 1016.1 hPa | 0 mm | - | - | - |
| 1777395892 | 11.67° C | 52% | 1016.4 hPa | 0 mm | - | - | - |
| 1777395588 | 12.22° C | 51% | 1016.3 hPa | 0 mm | - | - | - |
| 1777395284 | 11.67° C | 54% | 1016.2 hPa | 0 mm | - | - | - |
| 1777394982 | 11.67° C | 52% | 1016.2 hPa | 0 mm | - | - | - |
| 1777394678 | 11.11° C | 55% | 1016.2 hPa | 0 mm | - | - | - |
| 1777394375 | 11.11° C | 55% | 1016.2 hPa | 0 mm | - | - | - |
| 1777394072 | 11.11° C | 55% | 1016.3 hPa | 0 mm | - | - | - |
| 1777393767 | 11.67° C | 56% | 1016.3 hPa | 0 mm | - | - | - |
| 1777393467 | 10.56° C | 58% | 1016.3 hPa | 0 mm | - | - | - |
| 1777393163 | 10° C | 58% | 1016.4 hPa | 0 mm | - | - | - |
| 1777392860 | 10° C | 58% | 1016.3 hPa | 0 mm | - | - | - |
| 1777392555 | 10.56° C | 59% | 1016.3 hPa | 0 mm | - | - | - |
| 1777392251 | 10° C | 60% | 1016.4 hPa | 0 mm | - | - | - |
* Rain latest hour (hover to see other rain measurements)
** Current wind speed in m/s (hover to see current wind gust speed)